星链-1212 (STARLINK-1212 )

导读

STARLINK-1212是美国太空探索技术公司(SpaceX)星链星座的组网卫星,于2020年2月17日发射入轨。星链项目旨在搭建全球卫星互联网,为全球偏远地区、信号覆盖不佳区域提供高速网络服务,该卫星是星链早期部署批次的卫星之一,承担星座组网、通信测试相关功能。

基本信息
目录编号:
45223
目录名称:
STARLINK-1212
国际标识:
2020-012AX
轨道中心:
EARTH
卫星名称:
星链-1212
卫星全名:
星链-1212 (STARLINK-1212 )
卫星状态:
在轨 (已飞行2398 天)
发射日期:
2020-02-17 UTC
国别 :
美国 (US)
星等 :
--
该卫星已列入 空间交会检测服务 Space Conjunction Data Service (SCDS) ,当前飞行风险评估等级: 无高风险
轨道信息
数据来源 国际轨道数据
星历时间: 2026-09-11T06:59:43+0800
8小时前
查看轨道信息
半长轴: 6701.412km
偏心率: 0.0005123
轨道倾角: 53.036°
近地点辐角 102.453°
升交点赤经 156.739°
平近点角 257.706°
近地点: 319.841km
远地点: 326.709km
周期: 90.993分钟
每日圈数: 15.825349
详细信息
固有亮度:
5
最大亮度:
2.5
卫星平台:
Starlink V1.0
覆盖范围:
全球
运营商:
太空探索技术公司
运营商所在国:
美国
制造商(研发单位):
太空探索技术公司
制造商所在国:
美国
使用方式:
暂无
卫星简介
星链(Starlink)计划是由太空探索技术公司(SpaceX)提出的一个巨型低轨卫星互联网星座项目,计划在2019年至2024年间在太空搭建由约1.2万颗卫星组成的“星链”网络,其中1584颗将部署在地球上空550千米处的近地轨道,并从2020年开始工作。该卫星仍在工作。
2D轨道图
3D轨道图
轨道高度分析图
轨道倾角分析图
轨道综合分析图
查看轨道综合分析图
与全量物体交会距离演化趋势
与全量物体交会风险概率演化趋势